Tracking 31013 objects as of 11-Jul-2025
HD Live streaming from Space Station
objects crossing your sky now

FENGYUN 1C DEB

Track FENGYUN 1C DEB now!
10-day predictions


NORAD ID: 32425
Int'l Code: 1999-025DAM
Perigee: 675.1 km
Apogee: 1,015.6 km
Inclination: 96.7 °
Period: 101.7 minutes
Semi major axis: 7216 km
RCS: 0.003 m2 (small)
Launch date: May 10, 1999
Source: People's Republic of China (PRC)
Launch site: Taiyaun Space Center, China (TSC)

Note: This is SATELLITE DEBRIS
Your satellite tracking list
Your tracking list is empty




NASA's NSSDC Master Catalog

Two Line Element Set (TLE):
1 32425U 99025DAM 25191.26591365  .00000639  00000-0  25661-3 0  9997
2 32425  96.6918  17.8033 0235947  48.6831 313.4394 14.16204785673347
Source of the keplerian elements: AFSPC